[[{"header":{"parameterUnit":"m.s-1","parameterCategory":1,"la1":30.2991,"la2":30.254,"lo1":-89.0895,"lo2":-89.0444,"dy":0.0017,"dx":0.0017,"nx":28,"ny":28,"refTime":"2025-05-23T03:00:00:Z","depth":0,"parameterNumber":2,"parameterNumberName":"U-component_of_WINDS"},"data":[0,0,0,0,0,0,0,0,0,0,0,0,0,0,0,0,0,0,0,0,0,0,0,0,0,0,0,0,0,0,0,0,0,0,0,0,0,0,0,0,0,0,0,0,0,0,0,0,0,0,0,0,0,0,0,0,0,0,0.947,0.9471,0,0.9523,0.9524,0.9525,0.9511,0.951,0.9509,0.9508,0.9563,0.9566,0.9568,0,0,0,0,0,0,0,0,0,0,0,0,0,0.9357,0.9359,0.947,0.9471,0.9472,0.9523,0.9524,0.9525,0.9511,0.951,0.9509,0.9508,0.9563,0.9566,0.9569,0,0,0,0,0,0,0,0,0,0,0,0,0,0.9408,0.936,0.947,0.9471,0.9472,0.9523,0.9524,0.9525,0.9512,0.951,0.9508,0.9507,0.9562,0.9565,0.9569,0.9623,0,0,0.958,0.9582,0,0,0,0,0,0,0,0,0.9405,0.9412,0.947,0.9471,0.9472,0.9509,0.9504,0.9558,0.9512,0.9497,0.9508,0.9506,0.9547,0.9552,0.9565,0.9626,0.9628,0.958,0.9583,0.9584,0.9585,0,0,0,0,0,0,0,0.9401,0.9409,0.9491,0.9471,0.9472,0.9469,0.9474,0.9514,0.953,0.9498,0.9497,0.9503,0.9547,0.9561,0.9566,0.9629,0.958,0.9584,0.9586,0.9587,0.9734,0.9735,0,0,0,0,0,0,0.9397,0.9407,0.949,0.9493,0.9434,0.9472,0.9478,0.9499,0.9529,0.9532,0.9505,0.9503,0.9556,0.9562,0.9568,0.9632,0.9584,0.9588,0.959,0.9732,0.9734,0.9736,0,0,0,0,0,0,0.9395,0.9405,0.9488,0.945,0.946,0.9476,0.9499,0.9501,0.9515,0.9534,0.9537,0.9517,0.9555,0.9563,0.9609,0.9633,0.9589,0.9593,0.973,0.9733,0.9735,0.976,0,0,0,0,0,0,0.9391,0.9404,0.9425,0.945,0.9462,0.9528,0.95,0.9503,0.9521,0.9519,0.9547,0.955,0.9554,0.9603,0.9612,0.9638,0.9596,0.9728,0.9731,0.9734,0.9757,0.9763,0.9769,0,0,0,0,0,0.9387,0.9431,0.9426,0.9436,0.9489,0.9529,0.9536,0.954,0.9524,0.9544,0.9556,0.9549,0.9629,0.9608,0.9618,0.9645,0.9726,0.973,0.9734,0.9755,0.9762,0.9768,0,0,0,0,0,0,0.9409,0.9434,0.9429,0.9482,0.9503,0.9527,0.9554,0.9548,0.9575,0.9572,0.9576,0.9583,0.9629,0.9642,0.9618,0.9698,0.9675,0.9681,0.9688,0.9695,0.97,0.9696,0.9599,0,0,0,0,0,0.942,0.9451,0.9471,0.9516,0.9526,0.9538,0.9556,0.9557,0.958,0.9589,0.9604,0.9627,0.9657,0.9677,0.9706,0.9759,0.9764,0.9782,0.9788,0.9792,0.9797,0.9824,0.9832,0.9748,0.9748,0.9748,0,0,0.9443,0.946,0.948,0.952,0.9537,0.9568,0.9546,0.9581,0.9604,0.9594,0.9638,0.965,0.9675,0.9724,0.9747,0.9736,0.9821,0.9797,0.9801,0.9803,0.9829,0.9837,0.9844,0.9751,0.975,0.975,0,0,0.95,0.9517,0.9555,0.9571,0.9597,0.9604,0.9613,0.9637,0.9644,0.9687,0.968,0.9708,0.976,0.9777,0.9793,0.9854,0.9848,0.9864,0.9893,0.9919,0.9926,0.9932,0.9952,0.996,0.9869,0.9869,0.9869,0,0.9525,0.9572,0.9575,0.961,0.9627,0.9619,0.9656,0.9673,0.9706,0.9718,0.9706,0.9769,0.9786,0.9838,0.9853,0.9866,0.9876,0.9861,0.9925,0.9931,0.9936,0.9956,0.9964,0.987,0.987,0.987,0.987,0,0.9601,0.9634,0.9661,0.9693,0.9713,0.9749,0.9757,0.9777,0.9776,0.9784,0.9828,0.9847,0.9878,0.9891,0.9891,0.9943,0.9935,0.9924,0.9901,0.9946,0.9964,0.9972,0.9873,0.9872,0.9872,0.9871,0,0,0.9675,0.9706,0.9716,0.9729,0.9755,0.978,0.9815,0.9845,0.9861,0.9884,0.9913,0.9956,0.9945,0.9963,0.9964,0.9988,1.0033,0.9973,0.9974,0.9983,1.0089,1.0097,1.0106,1.0028,1.003,1.0031,1.0087,0,0.9734,0.9795,0.9798,0.9853,0.9882,0.9874,0.9904,0.9923,0.9931,0.9956,0.9965,0.9995,0.9979,0.9989,1.0012,1.0023,1.0054,1.0019,1.0055,1.0056,1.0048,1.0115,1.0124,1.0176,1.0094,1.0095,1.0096,0,0.9811,0.9835,0.9893,0.9913,0.9925,0.9952,0.9978,1.0003,1.0024,1.0028,1.0046,1.0044,1.0079,1.0055,1.0102,1.0078,1.0093,1.01,1.0102,1.0105,1.0078,1.012,1.0193,1.02,1.0108,1.0107,1.0106,0,0.9857,0.9904,0.9944,0.9956,0.998,0.9999,1.001,1.0029,1.0046,1.0069,1.008,1.0107,1.0122,1.0143,1.0148,1.013,1.0194,1.0171,1.0198,1.0198,1.0212,1.0211,1.0287,1.0223,1.0223,1.0222,1.0222,0,0.9922,0.9958,0.9965,0.999,1.0029,1.0031,1.0069,1.0079,1.0095,1.0121,1.0116,1.014,1.0145,1.017,1.0174,1.0211,1.0219,1.0222,1.0223,1.0222,1.0222,1.0232,1.0228,1.0224,1.0224,1.0224,1.0223,0,0.9981,0.9987,1.003,1.0049,1.0054,1.0082,1.0098,1.0121,1.0127,1.016,1.0168,1.0178,1.0208,1.0214,1.0249,1.0251,1.0296,1.0293,1.0288,1.0288,1.0314,1.0311,1.0399,1.041,1.0339,1.0339,1.034,0,1.0021,1.0048,1.0069,1.0086,1.0097,1.0124,1.0141,1.0143,1.0161,1.0185,1.0205,1.0233,1.0256,1.0303,1.0314,1.034,1.0337,1.0366,1.0341,1.0339,1.0336,1.0334,1.0336,1.0371,1.0372,1.0372,1.0373,0,1.0092,1.0093,1.0118,1.0143,1.0163,1.0183,1.0202,1.0216,1.022,1.024,1.0269,1.0287,1.0321,1.0349,1.0375,1.0386,1.038,1.038,1.0388,1.0387,1.0383,1.0384,1.03,1.0379,1.0378,1.0378,1.0377,1.0377,1.0142,1.0165,1.0182,1.0209,1.0223,1.0241,1.0263,1.0271,1.0295,1.0323,1.0323,1.0354,1.0372,1.0406,1.0418,1.0443,1.0434,1.0445,1.0447,1.045,1.0451,1.0379,1.0448,1.0447,1.0447,1.0447,1.0447,0,1.0212,1.0222,1.0247,1.0272,1.0293,1.0285,1.0305,1.0322,1.035,1.0367,1.0389,1.0421,1.0447,1.0459,1.0485,1.0502,1.05,1.0509,1.0507,1.0509,1.0459,1.0449,1.051,1.051,1.051,1.051,1.051,1.051,1.025,1.0287,1.029,1.0334,1.0344,1.0374,1.0386,1.0401,1.0415,1.0451,1.0472,1.0479,1.0494,1.052,1.0544,1.0546,1.0556,1.0566,1.0567,1.052,1.0513,1.0507,1.0498,1.0568,1.0568,1.0615,1.0616,1.0616]},{"header":{"parameterUnit":"m.s-1","parameterCategory":1,"la1":30.2991,"la2":30.254,"lo1":-89.0895,"lo2":-89.0444,"dy":0.0017,"dx":0.0017,"nx":28,"ny":28,"refTime":"2025-05-23T03:00:00:Z","depth":0,"parameterNumber":3,"parameterNumberName":"V-component_of_WINDS"},"data":[0,0,0,0,0,0,0,0,0,0,0,0,0,0,0,0,0,0,0,0,0,0,0,0,0,0,0,0,0,0,0,0,0,0,0,0,0,0,0,0,0,0,0,0,0,0,0,0,0,0,0,0,0,0,0,0,0,0,6.06,6.06,0,6.0565,6.0565,6.0565,6.0444,6.0441,6.0438,6.0436,6.0403,6.0404,6.0406,0,0,0,0,0,0,0,0,0,0,0,0,0,6.0564,6.0565,6.06,6.06,6.0599,6.0565,6.0565,6.0564,6.0444,6.0441,6.0438,6.0435,6.0402,6.0404,6.0406,0,0,0,0,0,0,0,0,0,0,0,0,0,6.056,6.0566,6.06,6.0535,6.0529,6.0565,6.0565,6.0564,6.0445,6.0441,6.0437,6.0433,6.0402,6.0404,6.0406,6.0504,0,0,6.0414,6.0415,0,0,0,0,0,0,0,0,6.056,6.0561,6.0545,6.054,6.0533,6.0505,6.054,6.0544,6.0446,6.0477,6.0436,6.0431,6.044,6.0439,6.0442,6.0502,6.0501,6.0414,6.0416,6.0417,6.0418,0,0,0,0,0,0,0,6.0561,6.0562,6.0586,6.0545,6.0538,6.0508,6.0503,6.054,6.0482,6.0474,6.0465,6.0463,6.0436,6.044,6.044,6.05,6.0414,6.0416,6.0418,6.0419,6.0638,6.0642,0,0,0,0,0,0,6.057,6.0563,6.0587,6.0585,6.0537,6.0512,6.0506,6.0518,6.0481,6.0472,6.0466,6.0457,6.0437,6.0437,6.0439,6.0549,6.0417,6.0419,6.0421,6.0634,6.0639,6.0644,0,0,0,0,0,0,6.057,6.0573,6.0589,6.0572,6.0571,6.0517,6.0531,6.0519,6.0523,6.0475,6.0464,6.048,6.0434,6.0435,6.0488,6.0546,6.042,6.0423,6.0629,6.0635,6.0641,6.0772,0,0,0,0,0,0,6.0569,6.0574,6.061,6.0573,6.0573,6.0639,6.0535,6.0522,6.0527,6.0515,6.0486,6.0477,6.0431,6.0485,6.0491,6.0547,6.0425,6.0623,6.0632,6.0639,6.0762,6.0782,6.0799,0,0,0,0,0,6.0568,6.0649,6.0612,6.0616,6.0617,6.0642,6.0642,6.0587,6.0532,6.0568,6.0538,6.0478,6.0539,6.0491,6.0497,6.0555,6.0619,6.0629,6.0639,6.0754,6.0778,6.0798,0,0,0,0,0,0,6.0694,6.0643,6.0602,6.0672,6.0663,6.0622,6.0665,6.0614,6.062,6.0609,6.0541,6.0535,6.0598,6.0582,6.0529,6.0647,6.0569,6.0581,6.0655,6.0677,6.0696,6.0698,6.0427,0,0,0,0,0,6.073,6.0754,6.0708,6.0775,6.0772,6.072,6.0729,6.0688,6.0675,6.067,6.0643,6.0634,6.0651,6.0663,6.0677,6.0759,6.0751,6.0802,6.0821,6.0836,6.0846,6.0888,6.091,6.0676,6.0676,6.0675,0,0,6.0804,6.0779,6.0799,6.08,6.0787,6.0814,6.0717,6.0751,6.077,6.0675,6.0723,6.0704,6.0689,6.0757,6.0786,6.0746,6.0909,6.0849,6.0861,6.0863,6.0901,6.0923,6.0943,6.0682,6.0681,6.068,0,0,6.0953,6.0937,6.099,6.098,6.0962,6.0926,6.094,6.0907,6.089,6.0936,6.0866,6.0889,6.092,6.0911,6.0912,6.1058,6.1003,6.1065,6.1161,6.1202,6.1221,6.1237,6.1288,6.1308,6.1075,6.1076,6.1076,0,6.1048,6.1085,6.1025,6.1062,6.1064,6.098,6.1033,6.1026,6.1014,6.1018,6.0973,6.1009,6.0994,6.1058,6.1094,6.1097,6.111,6.1067,6.1223,6.1238,6.1253,6.1301,6.1321,6.1083,6.1082,6.1081,6.1081,0,6.1203,6.123,6.1275,6.1264,6.1272,6.1318,6.1264,6.128,6.1238,6.1208,6.1257,6.1235,6.1241,6.1254,6.1214,6.1313,6.1289,6.1235,6.1155,6.1283,6.1328,6.1346,6.1094,6.1091,6.1089,6.1087,0,0,6.1429,6.1383,6.1401,6.1395,6.1369,6.1389,6.1431,6.1437,6.1451,6.1446,6.1479,6.1507,6.1457,6.1457,6.1416,6.1453,6.1569,6.1394,6.1392,6.1426,6.1677,6.1717,6.1739,6.1533,6.1537,6.1539,6.1678,0,6.1569,6.1637,6.1584,6.1661,6.1685,6.1606,6.1642,6.1631,6.1604,6.1621,6.1592,6.1613,6.1545,6.1545,6.1578,6.1548,6.1618,6.1538,6.1564,6.1565,6.1568,6.1762,6.1804,6.1936,6.1695,6.1698,6.17,0,6.1742,6.1743,6.1823,6.1791,6.1799,6.1833,6.1834,6.1851,6.1837,6.1815,6.1816,6.1764,6.1804,6.1727,6.178,6.1726,6.1734,6.1722,6.1725,6.1725,6.1639,6.1766,6.1977,6.1996,6.1726,6.1724,6.1722,0,6.1897,6.1919,6.1969,6.1967,6.1931,6.1957,6.1944,6.1925,6.1932,6.1933,6.1937,6.1944,6.1947,6.1954,6.1906,6.1854,6.1966,6.1885,6.1948,6.195,6.1974,6.1973,6.2188,6.1982,6.1982,6.1981,6.1981,0,6.2059,6.211,6.2038,6.2069,6.2125,6.2064,6.2121,6.21,6.2084,6.211,6.2042,6.2068,6.2003,6.2023,6.1986,6.2036,6.2038,6.2022,6.2011,6.2027,6.2029,6.203,6.2019,6.1986,6.1985,6.1984,6.1983,0,6.2241,6.2195,6.2244,6.2206,6.2198,6.2241,6.2209,6.2236,6.2205,6.2239,6.2243,6.2195,6.2215,6.2168,6.2181,6.2156,6.2227,6.2202,6.2231,6.2223,6.2289,6.2283,6.2511,6.2538,6.2316,6.2319,6.232,0,6.2346,6.2384,6.235,6.2362,6.2352,6.2372,6.2378,6.232,6.233,6.2317,6.2346,6.2359,6.2367,6.2402,6.2369,6.2378,6.2352,6.2432,6.2353,6.2368,6.2352,6.235,6.2353,6.2448,6.2451,6.2453,6.2454,0,6.2537,6.2512,6.2524,6.2527,6.2537,6.2537,6.2533,6.2547,6.2485,6.2499,6.2517,6.2524,6.2536,6.2551,6.2553,6.254,6.2487,6.248,6.2495,6.2511,6.2525,6.2517,6.2274,6.2474,6.2472,6.2471,6.247,6.2469,6.2683,6.2712,6.2693,6.2708,6.2698,6.2696,6.2719,6.2691,6.2705,6.271,6.2676,6.2702,6.2687,6.2684,6.2677,6.2697,6.2661,6.2683,6.2688,6.2694,6.2704,6.2524,6.2697,6.2697,6.2696,6.2695,6.2695,0,6.2869,6.2853,6.2867,6.2863,6.2875,6.2824,6.2817,6.283,6.2853,6.2843,6.2852,6.2874,6.2887,6.2856,6.2865,6.2887,6.2863,6.2891,6.2888,6.2886,6.2737,6.2722,6.291,6.291,6.291,6.291,6.291,6.291,6.2967,6.3014,6.2988,6.303,6.3013,6.3037,6.3037,6.3035,6.3026,6.3053,6.3064,6.3042,6.3024,6.3031,6.3042,6.3032,6.3038,6.3075,6.3057,6.2918,6.2897,6.2876,6.2862,6.3077,6.3077,6.3204,6.3205,6.3206]}]]